Location: Ostrava
(49.8330°N, 18.2830°E)
Time: 07:22:17
(UTC+02:00)

Cosmos 1400 Rocket - Visible Passes

Search period start: 29 March 2017 00:00
Search period end: 08 April 2017 00:00
Orbit: 523 x 570 km, 81.2° (Epoch: 27 March)

Date Brightness Start Highest point End Pass type
(mag) Time Alt. Az. Time Alt. Az. Time Alt. Az.
29 Mar 5.5 22:13:20 10° NNE 22:13:46 11° NNE 22:13:46 11° NNE visible
29 Mar 5.8 23:48:44 10° NNW 23:49:26 15° NNW 23:49:26 15° NNW visible
30 Mar 5.3 22:07:53 10° NNE 22:08:38 13° NNE 22:08:38 13° NNE visible
30 Mar 5.7 23:43:26 10° NNW 23:44:17 16° NNW 23:44:17 16° NNW visible
31 Mar 5.2 22:02:27 10° NNE 22:03:29 14° NE 22:03:29 14° NE visible
31 Mar 5.6 23:38:07 10° NNW 23:39:09 17° NNW 23:39:09 17° NNW visible
01 Apr 5.0 21:57:01 10° NNE 21:58:21 15° NE 21:58:21 15° NE visible
01 Apr 5.4 23:32:48 10° NNW 23:34:01 19° NNW 23:34:01 19° NNW visible
02 Apr 4.9 21:51:35 10° NNE 21:53:14 17° NE 21:53:14 17° NE visible
02 Apr 5.3 23:27:29 10° NNW 23:28:54 20° NW 23:28:54 20° NW visible
03 Apr 4.7 21:46:10 10° NNE 21:48:08 19° NE 21:48:08 19° NE visible
03 Apr 5.2 23:22:11 10° NNW 23:23:48 22° NW 23:23:48 22° NW visible
04 Apr 4.5 21:40:45 10° NNE 21:43:03 20° NE 21:43:03 20° NE visible
04 Apr 5.0 23:16:53 10° NNW 23:18:42 23° NW 23:18:42 23° NW visible
05 Apr 4.3 21:35:20 10° NNE 21:37:58 22° NE 21:37:58 22° NE visible
05 Apr 4.9 23:11:34 10° NNW 23:13:38 24° NW 23:13:38 24° NW visible
06 Apr 4.1 21:29:56 10° N 21:32:54 24° ENE 21:32:54 24° ENE visible
06 Apr 4.8 23:06:17 10° NNW 23:08:34 26° WNW 23:08:34 26° WNW visible
07 Apr 4.0 21:24:31 10° N 21:27:52 26° ENE 21:27:52 26° ENE visible
07 Apr 4.7 23:00:59 10° NNW 23:03:32 26° WNW 23:03:32 26° WNW visible
